Rolla, ND

5:22 PM CST on November 20, 2017 (GMT -0600)
Rolla

Weather History for K06D - July, 2013

Change the Weather History Date:

Thursday, July 11, 2013

  Actual Average (KRUG) Record (KRUG)
Temperature  
Mean Temperature 70 °F -  
Max Temperature 86 °F 82 °F 100 °F (1957)
Min Temperature 55 °F 57 °F 40 °F (1992)
Cooling Degree Days 6    
Growing Degree Days 20 (Base 50)    
Moisture  
Dew Point 62 °F    
Average Humidity 72    
Maximum Humidity 100    
Minimum Humidity 48    
Precipitation  
Precipitation 0.00 in - - ()
Sea Level Pressure  
Sea Level Pressure 29.88 in    
Wind  
Wind Speed 11 mph (South)    
Max Wind Speed 33 mph    
Max Gust Speed 38 mph    
Visibility 10 miles    
Events      
Averages and records for this station are not official NWS values.
T = Trace of Precipitation, MM = Missing Value Source: NWS Daily Summary

Daily Weather History Graph

Daily Weather History Graph

Search for Another Location

Airport or City:

Trip Planner

Search our weather history database for the weather conditions in past years. The results will help you decide how hot, cold, wet, or windy it might be!

Date:

Astronomy

Jul. 11, 2013 Rise Set
Actual Time 5:47 AM CDT 9:40 PM CDT
Civil Twilight 5:06 AM CDT 10:21 PM CDT
Nautical Twilight 4:09 AM CDT 11:17 PM CDT
Astronomical Twilight 2:39 AM CDT 12:45 AM CDT
Moon 9:29 AM CDT (7/11) 10:57 PM CDT (7/11)
Length of Visible Light 17h 15m
Length of Day
15h 53m
Waxing Crescent, 11% of the Moon is Illuminated
Jul 11
Waxing Crescent
Jul 15
First Quarter
Jul 22
Full
Jul 29
Last Quarter
Aug 6
New

Hourly Weather History & Observations

Time (CDT) Temp. Heat Index Dew Point Humidity Pressure Visibility Wind Dir Wind Speed Gust Speed Precip Events Conditions
12:15 AM 62.6 °F - 57.2 °F 82% 30.02 in 10.0 mi SSW 8.1 mph - N/A   Clear
12:35 AM 60.8 °F - 57.2 °F 88% 30.02 in 10.0 mi SSW 6.9 mph - N/A   Clear
12:55 AM 60.8 °F - 57.2 °F 88% 30.01 in 10.0 mi SSW 6.9 mph - N/A   Clear
1:15 AM 60.8 °F - 57.2 °F 88% 30.01 in 10.0 mi SSW 5.8 mph - N/A   Clear
1:35 AM 59.0 °F - 57.2 °F 94% 30.01 in 10.0 mi SSW 5.8 mph - N/A   Clear
1:55 AM 59.0 °F - 57.2 °F 94% 30.01 in 10.0 mi SSW 6.9 mph - N/A   Partly Cloudy
2:15 AM 57.2 °F - 57.2 °F 100% 30.01 in 10.0 mi SSW 6.9 mph - N/A   Partly Cloudy
2:35 AM 57.2 °F - 57.2 °F 100% 30.01 in 10.0 mi SSW 6.9 mph - N/A   Clear
2:55 AM 57.2 °F - 55.4 °F 94% 30.00 in 10.0 mi SSW 6.9 mph - N/A   Clear
3:15 AM 57.2 °F - 55.4 °F 94% 30.00 in 10.0 mi SSW 6.9 mph - N/A   Clear
3:35 AM 55.4 °F - 55.4 °F 100% 30.00 in 10.0 mi SSW 6.9 mph - N/A   Clear
3:55 AM 55.4 °F - 55.4 °F 100% 29.99 in 10.0 mi South 5.8 mph - N/A   Clear
4:15 AM 55.4 °F - 53.6 °F 94% 29.99 in 10.0 mi South 6.9 mph - N/A   Clear
4:35 AM 57.2 °F - 53.6 °F 88% 29.99 in 10.0 mi South 6.9 mph - N/A   Clear
4:55 AM 55.4 °F - 53.6 °F 94% 29.99 in 10.0 mi SSW 6.9 mph - N/A   Clear
5:15 AM 55.4 °F - 55.4 °F 100% 29.99 in 10.0 mi SSW 5.8 mph - N/A   Clear
5:35 AM 55.4 °F - 53.6 °F 94% 29.99 in 10.0 mi SSW 6.9 mph - N/A   Clear
5:55 AM 55.4 °F - 53.6 °F 94% 29.98 in 10.0 mi SSW 6.9 mph - N/A   Clear
6:15 AM 55.4 °F - 53.6 °F 94% 29.98 in 10.0 mi SSW 6.9 mph - N/A   Clear
6:35 AM 55.4 °F - 53.6 °F 94% 29.98 in 10.0 mi SSW 6.9 mph - N/A   Clear
6:55 AM 57.2 °F - 55.4 °F 94% 29.98 in 10.0 mi SSW 4.6 mph - N/A   Clear
7:15 AM 59.0 °F - 55.4 °F 88% 29.97 in 10.0 mi SSE 3.5 mph - N/A   Clear
7:35 AM 62.6 °F - 55.4 °F 77% 29.97 in 10.0 mi South 4.6 mph - N/A   Clear
7:55 AM 62.6 °F - 55.4 °F 77% 29.96 in 10.0 mi South 3.5 mph - N/A   Clear
8:15 AM 64.4 °F - 57.2 °F 77% 29.96 in 10.0 mi South 6.9 mph - N/A   Clear
8:35 AM 68.0 °F - 59.0 °F 73% 29.96 in 10.0 mi South 10.4 mph - N/A   Clear
8:55 AM 68.0 °F - 60.8 °F 78% 29.95 in 10.0 mi South 16.1 mph 19.6 mph N/A   Clear
9:15 AM 69.8 °F - 60.8 °F 73% 29.95 in 10.0 mi South 16.1 mph 23.0 mph N/A   Clear
9:35 AM 71.6 °F - 60.8 °F 69% 29.94 in 10.0 mi South 12.7 mph - N/A   Clear
9:55 AM 73.4 °F - 59.0 °F 61% 29.94 in 10.0 mi SSW 17.3 mph 21.9 mph N/A   Clear
10:15 AM 73.4 °F - 59.0 °F 61% 29.93 in 10.0 mi South 16.1 mph 19.6 mph N/A   Clear
10:35 AM 75.2 °F - 59.0 °F 57% 29.93 in 10.0 mi South 16.1 mph - N/A   Clear
10:55 AM 77.0 °F - 59.0 °F 54% 29.92 in 10.0 mi South 18.4 mph 21.9 mph N/A   Clear
11:15 AM 77.0 °F - 59.0 °F 54% 29.91 in 10.0 mi South 19.6 mph - N/A   Unknown
11:35 AM 78.8 °F - 59.0 °F 51% 29.91 in 10.0 mi South 16.1 mph 21.9 mph N/A   Unknown
11:55 AM 78.8 °F - 60.8 °F 54% 29.90 in 10.0 mi SSE 17.3 mph 21.9 mph N/A   Unknown
12:15 PM 80.6 °F 81.1 °F 59.0 °F 48% 29.90 in 10.0 mi SSE 17.3 mph 24.2 mph N/A   Unknown
12:35 PM 80.6 °F 81.5 °F 60.8 °F 51% 29.89 in 10.0 mi SSE 16.1 mph - N/A   Unknown
12:55 PM 80.6 °F 81.8 °F 62.6 °F 54% 29.89 in 10.0 mi South 17.3 mph 25.3 mph N/A   Unknown
1:15 PM 80.6 °F 81.8 °F 62.6 °F 54% 29.87 in 10.0 mi South 16.1 mph 23.0 mph N/A   Unknown
1:35 PM 82.4 °F 83.4 °F 62.6 °F 51% 29.86 in 10.0 mi SSE 21.9 mph - N/A   Unknown
1:55 PM 82.4 °F 83.4 °F 62.6 °F 51% 29.86 in 10.0 mi SSE 17.3 mph 26.5 mph N/A   Unknown
2:15 PM 82.4 °F 83.4 °F 62.6 °F 51% 29.84 in 10.0 mi SSE 19.6 mph 25.3 mph N/A   Unknown
2:35 PM 82.4 °F 83.9 °F 64.4 °F 54% 29.84 in 10.0 mi SSE 17.3 mph 24.2 mph N/A   Unknown
2:55 PM 84.2 °F 85.6 °F 64.4 °F 51% 29.83 in 10.0 mi South 18.4 mph 24.2 mph N/A   Unknown
3:15 PM 84.2 °F 85.6 °F 64.4 °F 51% 29.82 in 10.0 mi South 16.1 mph 27.6 mph N/A   Unknown
3:35 PM 84.2 °F 86.6 °F 66.2 °F 55% 29.82 in 10.0 mi SSE 16.1 mph 26.5 mph N/A   Unknown
3:55 PM 84.2 °F 86.6 °F 66.2 °F 55% 29.82 in 10.0 mi South 16.1 mph 23.0 mph N/A   Unknown
4:15 PM 86.0 °F 88.2 °F 66.2 °F 51% 29.81 in 10.0 mi South 20.7 mph 25.3 mph N/A   Unknown
4:35 PM 86.0 °F 88.2 °F 66.2 °F 51% 29.81 in 10.0 mi South 18.4 mph 26.5 mph N/A   Unknown
4:55 PM 86.0 °F 89.4 °F 68.0 °F 55% 29.80 in 10.0 mi SSW 17.3 mph 25.3 mph N/A   Unknown
5:15 PM 86.0 °F 89.4 °F 68.0 °F 55% 29.80 in 10.0 mi South 18.4 mph 26.5 mph N/A   Unknown
5:35 PM 86.0 °F 88.2 °F 66.2 °F 51% 29.79 in 10.0 mi South 17.3 mph 24.2 mph N/A   Unknown
5:55 PM 86.0 °F 89.4 °F 68.0 °F 55% 29.77 in 10.0 mi South 16.1 mph 24.2 mph N/A   Unknown
6:15 PM 86.0 °F 88.2 °F 66.2 °F 51% 29.76 in 10.0 mi South 20.7 mph 28.8 mph N/A   Unknown
6:35 PM 86.0 °F 88.2 °F 66.2 °F 51% 29.75 in 10.0 mi South 19.6 mph 23.0 mph N/A   Unknown
6:55 PM 86.0 °F 89.4 °F 68.0 °F 55% 29.74 in 10.0 mi SSE 20.7 mph 25.3 mph N/A   Unknown
7:15 PM 86.0 °F 89.4 °F 68.0 °F 55% 29.74 in 10.0 mi SSE 18.4 mph 25.3 mph N/A   Unknown
7:35 PM 84.2 °F 88.4 °F 69.8 °F 62% 29.74 in 10.0 mi SSE 17.3 mph 24.2 mph N/A   Unknown
7:55 PM 84.2 °F 88.4 °F 69.8 °F 62% 29.74 in 10.0 mi SSE 17.3 mph 24.2 mph N/A   Unknown
8:15 PM 82.4 °F 86.3 °F 69.8 °F 66% 29.74 in 10.0 mi SSE 15.0 mph - N/A   Unknown
8:35 PM 82.4 °F 87.2 °F 71.6 °F 70% 29.74 in 10.0 mi SSE 12.7 mph - N/A   Clear
8:55 PM 80.6 °F 84.6 °F 71.6 °F 74% 29.73 in 10.0 mi SSE 15.0 mph - N/A   Clear
9:15 PM 80.6 °F 84.6 °F 71.6 °F 74% 29.73 in 10.0 mi SSE 15.0 mph 21.9 mph N/A   Clear
9:35 PM 80.6 °F 84.6 °F 71.6 °F 74% 29.72 in 10.0 mi SSE 15.0 mph - N/A   Clear
9:55 PM 78.8 °F - 71.6 °F 78% 29.76 in 10.0 mi South 12.7 mph - N/A   Clear
10:15 PM 78.8 °F - 71.6 °F 78% 29.75 in 10.0 mi SSW 18.4 mph 25.3 mph N/A   Partly Cloudy
10:35 PM 78.8 °F - 73.4 °F 83% 29.74 in 10.0 mi SSW 33.4 mph 38.0 mph N/A   Mostly Cloudy
10:55 PM 77.0 °F - 73.4 °F 89% 29.77 in 10.0 mi SSW 17.3 mph - N/A   Mostly Cloudy
11:15 PM 77.0 °F - 73.4 °F 89% 29.75 in 10.0 mi SSW 13.8 mph - N/A   Partly Cloudy
11:35 PM 77.0 °F - 73.4 °F 89% 29.74 in 10.0 mi SSW 12.7 mph - N/A   Mostly Cloudy
11:55 PM 77.0 °F - 73.4 °F 89% 29.73 in 10.0 mi South 13.8 mph - N/A   Partly Cloudy